Wind_Speed
48 41 41 46 51 53 50 49 50 44 46 46 41 39 38 36 40 57 65 73 80 81 80 78 75 74 72 70 68 66 63 65 66 62 61 61 60 62 61 61 60 58 57 56 53
50 43 42 43 49 49 51 53 53 51 47 50 49 43 42 41 39 37 53 64 69 76 80 81 81 81 78 75 73 70 70 69 64 64 62 58 56 56 55 57 57 55 51 44 41
55 47 42 44 47 55 52 53 55 51 49 48 54 51 46 45 44 42 39 51 62 68 73 76 75 75 77 79 78 76 74 71 68 64 63 59 55 53 53 53 53 49 44 42 41
59 48 43 45 46 53 60 58 56 57 54 54 54 57 56 50 49 46 44 42 51 60 65 69 71 72 72 72 73 73 74 72 66 65 61 58 53 50 49 50 51 47 43 44 44
65 53 44 44 45 51 58 66 63 60 60 56 51 57 60 57 52 51 48 45 43 50 58 65 67 68 68 69 68 68 69 66 63 60 58 54 50 50 50 50 49 47 46 46 46
66 57 48 43 45 49 57 64 69 70 61 62 60 58 58 64 57 54 53 50 45 43 50 59 65 66 65 66 65 65 63 59 58 56 54 52 51 51 51 49 45 44 44 44 46
70 59 52 45 44 47 55 65 69 72 69 64 70 66 62 66 66 60 57 55 52 49 46 54 59 62 66 65 63 61 59 56 56 55 52 51 49 50 44 42 41 41 45 48 50
73 62 55 49 46 47 52 59 71 74 78 72 68 67 65 66 69 68 60 61 58 53 49 53 56 59 61 62 61 59 57 55 56 53 51 49 51 46 44 41 42 44 47 49 51
75 67 61 56 52 48 53 57 67 77 78 80 76 77 72 69 66 73 70 65 65 60 55 53 57 56 57 56 57 55 55 56 55 52 49 47 46 44 44 44 43 44 45 48 50
79 73 66 62 59 56 51 55 63 74 85 85 83 84 80 79 74 72 76 72 70 66 59 53 59 55 52 53 56 60 59 60 55 51 48 47 48 47 47 45 43 42 43 45 47
80 77 74 71 66 61 57 55 57 70 84 94 93 92 90 80 79 76 78 76 73 71 64 60 59 55 63 65 65 62 59 58 55 53 51 50 47 48 47 45 42 41 42 42 44
84 81 77 73 71 69 65 65 64 65 69 83 98 98 95 96 86 82 81 84 79 76 74 65 60 69 68 67 66 62 59 60 59 57 53 49 48 48 47 42 41 41 42 40 42
87 83 79 78 77 74 75 76 78 75 76 74 83 91 102 100 95 92 87 87 88 82 78 74 70 76 72 70 68 67 66 67 63 59 54 50 48 49 45 41 39 40 39 38 39
90 87 84 84 80 79 79 88 87 86 89 74 79 82 94 101 99 96 92 90 93 89 87 81 81 77 75 71 73 72 72 68 66 61 56 51 50 47 43 41 38 39 39 37 39
90 88 88 82 75 69 70 76 81 84 88 73 80 83 90 96 95 100 102 103 96 98 93 87 88 87 79 78 78 77 74 67 65 64 58 53 50 49 43 40 38 40 38 39 38
90 88 83 74 68 65 63 68 74 76 68 58 71 94 94 98 97 104 107 101 100 105 100 94 93 88 84 84 82 80 76 71 68 66 58 55 51 50 46 41 38 41 39 38 36
93 86 78 71 67 61 59 62 64 61 57 56 63 80 102 105 103 105 108 102 103 106 102 98 95 91 89 88 84 82 79 73 70 65 56 58 55 53 48 42 40 41 40 39 36
92 80 75 68 58 52 50 47 42 43 46 52 61 71 83 106 111 110 110 107 108 109 107 106 100 95 91 91 87 86 85 78 74 67 62 64 56 54 51 45 41 42 40 39 37
87 78 72 59 51 48 48 41 35 40 43 52 63 71 79 91 103 115 112 111 112 113 112 109 105 101 98 96 95 90 86 81 76 73 66 64 59 57 53 48 44 42 40 39 38
84 77 65 53 50 48 46 43 38 43 42 46 55 68 76 82 93 104 115 112 111 113 115 114 112 108 102 100 97 92 91 87 79 74 70 63 61 59 57 52 46 44 42 40 38
81 74 58 53 49 45 41 40 40 45 43 44 52 62 73 79 83 92 102 113 112 114 117 116 114 112 109 104 97 95 91 87 81 75 71 64 63 64 60 56 50 47 45 42 40
79 67 56 51 47 40 37 37 39 43 42 44 48 55 67 73 75 81 88 108 113 115 115 116 119 116 110 107 103 98 95 90 85 77 74 70 66 69 65 59 54 51 49 46 43
74 61 55 48 40 35 32 31 35 38 42 43 45 51 60 67 71 76 83 95 113 115 114 114 118 116 115 111 106 100 96 92 86 82 74 72 66 70 68 63 59 55 52 48 47
70 58 54 44 35 31 30 26 31 33 37 40 45 50 56 61 66 70 76 84 99 114 113 117 115 110 107 104 103 100 97 96 92 87 79 74 73 74 74 70 64 59 56 53 51
65 55 50 40 32 27 26 26 26 32 37 39 41 46 50 56 62 65 71 76 84 99 114 114 110 110 108 110 108 105 103 101 94 89 84 80 77 76 76 72 67 66 63 58 55
60 53 46 36 29 24 23 23 24 25 32 36 38 44 50 56 60 63 66 71 76 84 95 108 112 109 109 109 108 107 104 100 96 90 85 83 81 79 75 74 73 71 68 65 60
57 50 42 33 27 23 20 20 19 25 30 33 37 44 48 54 59 60 63 66 70 75 80 87 100 115 111 107 110 108 103 100 97 92 88 83 86 82 77 77 75 74 72 68 66
Wind_Direction
323 303 288 272 264 266 272 273 273 271 260 256 254 256 255 253 251 245 243 241 238 240 242 244 244 246 247 248 248 250 250 252 253 253 251 254 259 263 266 269 270 270 268 267 266
322 308 292 277 266 258 264 269 272 275 269 252 251 252 255 255 256 253 247 242 239 240 240 240 242 243 244 243 246 249 250 252 251 252 250 252 255 259 263 266 266 263 259 260 261
325 309 291 279 268 260 250 263 266 268 268 261 249 248 251 255 257 257 256 248 241 239 240 240 240 242 243 244 245 246 248 249 251 250 249 250 252 258 261 259 256 254 253 250 253
322 312 293 281 271 261 256 245 258 262 263 264 253 248 249 249 253 254 255 253 246 239 238 237 235 237 239 240 241 243 245 246 245 243 244 249 251 251 247 246 249 248 249 253 256
323 313 298 282 272 261 256 251 244 247 256 259 253 250 248 243 246 250 250 251 250 244 236 236 234 233 233 234 235 234 237 237 237 238 244 247 245 241 238 239 244 249 254 257 257
322 313 303 286 271 260 253 253 250 247 245 252 252 252 250 247 240 246 245 246 247 249 241 235 233 232 232 231 230 232 233 230 233 237 237 237 237 236 236 240 244 248 253 259 263
323 316 306 291 273 261 253 249 251 249 243 248 248 251 251 250 244 237 245 243 242 244 249 236 231 231 230 229 230 230 230 230 230 230 229 228 230 231 234 237 243 250 256 260 263
323 317 308 298 282 266 255 247 245 246 245 242 244 248 249 249 241 238 237 243 239 239 243 240 230 228 227 226 227 227 227 225 224 223 224 226 230 232 235 241 248 253 257 260 263
323 318 310 302 292 276 261 252 243 242 244 242 240 242 243 244 244 238 234 235 238 234 237 237 229 225 224 225 224 221 219 219 219 220 223 226 232 233 238 244 249 253 257 261 264
322 318 312 303 295 287 275 258 248 242 241 240 236 238 238 241 237 239 233 230 234 233 233 234 228 219 219 221 220 218 217 218 219 221 224 228 232 235 242 247 251 253 260 263 265
322 317 311 304 298 290 282 270 255 242 238 238 239 236 235 238 240 235 237 231 228 233 230 228 222 212 219 220 220 219 219 220 222 224 224 227 232 238 243 249 252 257 259 264 268
321 315 309 303 296 290 283 272 261 251 241 238 239 239 240 238 236 235 235 234 229 227 229 223 218 218 219 224 222 221 222 222 224 226 224 227 234 239 244 250 255 261 262 266 271
320 315 308 301 295 288 281 271 264 258 248 236 234 236 238 238 238 237 234 232 230 226 226 223 217 221 223 224 222 222 221 223 226 227 227 229 235 239 244 251 256 261 264 270 276
321 315 309 302 296 287 280 271 266 260 257 242 235 230 234 236 235 233 233 231 227 226 223 223 220 222 225 225 223 222 225 225 227 228 228 228 236 239 244 252 256 260 263 272 278
320 314 308 302 295 285 274 267 263 257 256 247 239 230 229 232 230 233 232 232 226 222 224 220 223 222 223 224 224 223 225 227 229 228 228 230 234 242 243 251 260 261 261 270 280
319 314 308 302 295 287 277 268 262 260 259 251 235 233 230 229 226 227 232 230 224 220 221 222 224 224 220 224 224 224 226 228 229 227 227 233 234 243 243 247 254 260 263 269 280
320 317 310 305 299 293 281 272 267 267 257 246 234 230 227 228 225 223 225 224 220 219 220 222 223 226 224 223 225 226 229 231 231 229 228 234 236 240 246 247 251 259 264 269 279
322 319 313 311 305 296 286 280 274 263 248 239 231 226 223 225 225 224 223 223 218 217 217 219 221 223 226 225 224 226 230 231 231 227 228 232 235 240 245 248 251 257 263 268 275
325 320 318 314 304 295 289 287 273 260 244 231 224 221 223 223 223 223 223 222 220 216 217 217 221 222 223 224 224 224 229 231 231 229 227 233 236 240 244 247 251 256 261 265 269
326 322 322 312 303 296 288 277 264 256 246 236 228 220 221 221 222 222 221 221 222 220 217 216 217 220 222 224 225 225 227 229 229 229 228 232 236 239 243 246 251 256 260 263 267
327 323 321 312 305 296 285 271 255 248 240 236 228 223 220 220 220 222 220 219 221 221 220 218 218 220 222 223 224 226 229 230 231 231 230 229 235 240 243 246 249 254 259 264 266
327 324 319 313 305 297 283 270 256 247 238 234 230 223 221 222 219 220 220 218 220 221 221 221 220 220 222 223 223 225 228 230 229 229 228 229 232 238 242 245 248 253 257 262 266
327 324 319 314 306 295 283 268 259 245 233 231 226 224 220 219 217 216 218 218 218 220 221 222 223 222 223 224 224 224 228 230 230 229 232 232 235 240 243 245 247 250 255 260 264
327 324 318 316 305 293 283 269 256 246 234 226 224 223 222 218 216 215 215 218 218 219 220 221 223 222 223 224 226 225 228 231 231 231 231 231 233 236 241 244 247 250 253 257 262
327 324 319 317 308 294 280 268 253 241 229 225 222 223 221 216 215 214 214 215 217 219 220 221 222 224 222 221 223 223 225 229 229 230 231 232 234 237 241 246 249 250 252 256 258
327 323 321 318 309 294 279 264 254 237 228 223 219 218 217 211 212 212 214 216 216 218 220 221 219 221 222 220 222 223 224 227 230 231 234 236 238 241 241 242 245 250 254 256 258
327 323 323 321 309 294 278 263 244 229 223 222 217 219 217 211 210 210 213 215 214 216 218 219 219 219 220 220 220 222 224 226 228 230 232 234 236 237 238 241 245 249 254 257 259
Height
10631 10625 10620 10617 10616 10615 10614 10614 10615 10616 10618 10619 10619 10620 10621 10623 10625 10627 10631 10636 10640 10648 10656 10663 10669 10674 10680 10687 10692 10699 10707 10708 10712 10716 10720 10726 10730 10732 10733 10735 10738 10739 10738 10737 10738
10618 10612 10607 10603 10601 10602 10602 10602 10603 10604 10604 10606 10608 10609 10611 10612 10615 10617 10618 10621 10626 10632 10641 10648 10655 10660 10667 10673 10680 10687 10692 10695 10700 10705 10710 10717 10719 10720 10722 10724 10726 10727 10728 10728 10729
10603 10597 10592 10589 10585 10585 10586 10589 10589 10590 10591 10592 10594 10596 10599 10601 10603 10606 10608 10610 10612 10617 10624 10631 10638 10645 10652 10659 10665 10672 10676 10683 10689 10695 10699 10704 10709 10709 10711 10713 10715 10718 10719 10720 10720
10587 10582 10576 10573 10569 10567 10568 10569 10574 10575 10577 10579 10580 10583 10586 10589 10591 10594 10597 10598 10600 10604 10609 10616 10622 10630 10637 10644 10650 10658 10664 10671 10676 10683 10687 10693 10699 10700 10701 10702 10706 10709 10710 10711 10713
10571 10565 10559 10554 10552 10550 10549 10551 10554 10558 10561 10564 10566 10568 10572 10575 10579 10582 10584 10588 10590 10593 10598 10603 10609 10616 10624 10631 10639 10646 10651 10657 10664 10670 10676 10682 10687 10689 10691 10695 10698 10699 10701 10702 10704
10554 10546 10540 10535 10532 10531 10530 10531 10534 10538 10541 10547 10551 10554 10558 10558 10566 10569 10571 10576 10580 10583 10587 10591 10596 10604 10613 10620 10628 10633 10640 10647 10653 10658 10665 10670 10675 10679 10682 10688 10692 10691 10692 10693 10694
10534 10528 10521 10517 10512 10511 10511 10511 10514 10517 10523 10527 10532 10537 10543 10540 10550 10554 10559 10564 10568 10573 10576 10580 10586 10594 10600 10607 10616 10622 10630 10637 10641 10647 10655 10660 10665 10667 10677 10679 10682 10684 10684 10684 10684
10512 10505 10499 10497 10493 10491 10491 10491 10493 10497 10503 10507 10512 10519 10527 10525 10535 10538 10545 10551 10555 10560 10566 10570 10576 10583 10590 10597 10603 10612 10621 10626 10630 10637 10644 10651 10652 10661 10666 10670 10674 10675 10675 10675 10675
10490 10482 10476 10472 10471 10471 10470 10470 10470 10474 10480 10485 10493 10499 10505 10508 10512 10520 10528 10534 10542 10547 10553 10560 10566 10573 10580 10588 10595 10604 10609 10613 10620 10628 10634 10641 10644 10651 10656 10660 10665 10666 10666 10665 10665
10464 10456 10452 10447 10444 10444 10448 10447 10448 10451 10456 10461 10470 10474 10481 10483 10491 10499 10509 10518 10526 10534 10542 10549 10556 10563 10573 10580 10586 10588 10594 10600 10610 10619 10626 10632 10635 10642 10646 10651 10654 10657 10657 10655 10653
10441 10432 10424 10419 10417 10418 10420 10422 10426 10426 10428 10431 10440 10452 10458 10465 10473 10481 10491 10501 10510 10521 10528 10534 10546 10558 10553 10558 10568 10578 10588 10595 10602 10608 10616 10621 10628 10631 10636 10640 10644 10646 10646 10645 10644
10419 10410 10402 10395 10391 10389 10392 10390 10391 10394 10400 10404 10414 10426 10432 10443 10451 10460 10469 10481 10490 10501 10509 10524 10539 10531 10537 10550 10561 10572 10581 10585 10590 10596 10605 10613 10618 10623 10626 10630 10634 10635 10635 10636 10634
10398 10387 10376 10369 10365 10366 10362 10358 10351 10358 10362 10378 10387 10400 10404 10413 10430 10436 10447 10460 10471 10482 10495 10509 10515 10515 10527 10539 10552 10560 10565 10569 10579 10587 10596 10604 10610 10615 10618 10621 10625 10625 10626 10626 10625
10372 10358 10350 10340 10337 10334 10334 10317 10319 10324 10315 10354 10360 10377 10377 10387 10402 10410 10422 10434 10450 10462 10471 10487 10497 10507 10519 10532 10538 10546 10549 10559 10569 10577 10587 10594 10601 10606 10610 10611 10615 10616 10617 10617 10615
10347 10334 10317 10307 10302 10298 10293 10284 10281 10281 10280 10324 10333 10345 10349 10354 10381 10383 10390 10404 10427 10436 10450 10472 10474 10486 10503 10514 10521 10529 10537 10549 10557 10567 10575 10585 10592 10595 10601 10602 10604 10605 10609 10608 10607
10321 10306 10287 10276 10268 10260 10258 10252 10247 10246 10264 10293 10305 10305 10315 10325 10345 10354 10359 10376 10397 10409 10433 10447 10459 10473 10488 10496 10507 10516 10525 10535 10544 10554 10569 10573 10583 10584 10590 10595 10596 10595 10598 10599 10599
10291 10275 10255 10246 10238 10231 10225 10220 10221 10230 10248 10260 10271 10277 10286 10295 10314 10322 10330 10352 10372 10392 10417 10433 10446 10461 10472 10480 10494 10506 10514 10526 10534 10547 10563 10561 10571 10572 10579 10585 10587 10587 10588 10589 10590
10262 10245 10229 10222 10212 10203 10199 10200 10206 10211 10217 10226 10236 10244 10254 10261 10281 10296 10310 10329 10349 10370 10390 10406 10421 10442 10456 10468 10483 10490 10497 10512 10522 10536 10546 10545 10562 10564 10567 10574 10577 10578 10579 10580 10581
10238 10221 10210 10200 10190 10184 10180 10185 10189 10188 10192 10198 10204 10215 10224 10233 10253 10271 10291 10310 10325 10348 10366 10387 10403 10419 10430 10443 10455 10474 10486 10498 10510 10522 10532 10540 10550 10553 10557 10562 10566 10569 10570 10572 10573
10217 10201 10193 10181 10173 10168 10167 10165 10168 10168 10174 10181 10188 10194 10203 10214 10226 10242 10263 10292 10309 10329 10346 10363 10378 10397 10410 10424 10440 10459 10466 10478 10497 10511 10522 10532 10539 10542 10545 10550 10555 10558 10560 10563 10564
10197 10184 10175 10164 10157 10153 10149 10148 10149 10150 10157 10164 10170 10179 10187 10196 10210 10227 10250 10271 10288 10306 10325 10344 10360 10377 10390 10408 10432 10445 10459 10472 10486 10501 10514 10522 10528 10528 10533 10539 10544 10547 10550 10553 10554
10181 10169 10159 10150 10142 10138 10134 10132 10134 10136 10144 10151 10156 10165 10172 10182 10202 10217 10236 10251 10270 10285 10305 10329 10341 10359 10379 10396 10411 10428 10441 10454 10470 10490 10499 10507 10513 10513 10521 10528 10533 10536 10539 10541 10542
10167 10155 10144 10138 10130 10124 10122 10122 10122 10127 10132 10138 10145 10152 10160 10172 10187 10201 10215 10229 10247 10262 10285 10308 10318 10342 10359 10377 10397 10419 10434 10448 10462 10475 10490 10498 10506 10504 10509 10517 10521 10525 10528 10530 10532
10153 10142 10131 10127 10120 10113 10110 10112 10111 10115 10123 10129 10136 10142 10150 10163 10176 10190 10203 10216 10231 10250 10269 10281 10303 10331 10357 10384 10393 10410 10422 10432 10444 10460 10475 10487 10486 10488 10493 10502 10511 10515 10516 10518 10521
10142 10132 10122 10115 10109 10104 10101 10101 10104 10109 10114 10120 10128 10136 10145 10156 10166 10180 10190 10204 10218 10233 10249 10265 10296 10317 10334 10353 10367 10385 10398 10409 10432 10447 10459 10464 10471 10476 10483 10493 10500 10501 10503 10508 10509
10131 10122 10113 10106 10099 10096 10094 10093 10096 10102 10108 10115 10120 10126 10135 10145 10155 10168 10180 10192 10206 10219 10232 10252 10280 10299 10315 10336 10353 10369 10384 10401 10419 10437 10452 10457 10463 10467 10475 10480 10481 10486 10491 10494 10497
10122 10113 10105 10098 10091 10088 10087 10087 10091 10095 10101 10108 10113 10119 10127 10136 10148 10159 10171 10182 10195 10207 10222 10242 10263 10282 10300 10320 10337 10353 10377 10391 10406 10420 10429 10444 10437 10447 10459 10465 10468 10472 10477 10482 10484